This is the latest recevied weather packets stored in our database for station/object W4FXD. If no packets are shown the sender has not sent any weather packets the latest 10 day(s).
| Time | Temp. | Humidity | Pressure | Rain* | Wind** | Luminosity | Snow |
|---|---|---|---|---|---|---|---|
| 1777998144 | 21.67° C | 57% | 1015.2 hPa | 0 mm | - | 333 W/m² | - |
| 1777997841 | 21.67° C | 58% | 1014.9 hPa | 0 mm | - | 344 W/m² | - |
| 1777997538 | 21.67° C | 58% | 1015.1 hPa | 0 mm | - | 410 W/m² | - |
| 1777997235 | 21.67° C | 56% | 1015.1 hPa | 0 mm | - | 512 W/m² | - |
| 1777996933 | 21.11° C | 59% | 1015.3 hPa | 0 mm | - | 493 W/m² | - |
| 1777996629 | 21.11° C | 59% | 1015.1 hPa | 0 mm | - | 436 W/m² | - |
| 1777996326 | 21.11° C | 59% | 1015.2 hPa | 0 mm | - | 585 W/m² | - |
| 1777996022 | 21.67° C | 60% | 1015.4 hPa | 0 mm | - | 629 W/m² | - |
| 1777995718 | 20.56° C | 61% | 1015.3 hPa | 0 mm | - | 547 W/m² | - |
| 1777995415 | 21.11° C | 60% | 1015 hPa | 0 mm | - | 405 W/m² | - |
| 1777995112 | 21.11° C | 60% | 1015.2 hPa | 0 mm | - | 444 W/m² | - |
| 1777994809 | 20.56° C | 60% | 1015.1 hPa | 0 mm | - | 480 W/m² | - |
| 1777994505 | 20.56° C | 62% | 1014.9 hPa | 0 mm | - | 389 W/m² | - |
| 1777994200 | 20° C | 60% | 1015 hPa | 0 mm | - | 444 W/m² | - |
| 1777993898 | 20° C | 59% | 1015 hPa | 0 mm | - | 405 W/m² | - |
| 1777993594 | 20° C | 60% | 1014.9 hPa | 0 mm | - | 379 W/m² | - |
| 1777993291 | 20° C | 60% | 1015 hPa | 0 mm | - | 291 W/m² | - |
| 1777992986 | 20° C | 59% | 1015.1 hPa | 0 mm | - | 413 W/m² | - |
| 1777992685 | 20° C | 58% | 1015.1 hPa | 0 mm | - | 399 W/m² | - |
| 1777992382 | 20.56° C | 58% | 1015.1 hPa | 0 mm | - | 498 W/m² | - |
| 1777992080 | 20.56° C | 61% | 1014.9 hPa | 0 mm | - | 533 W/m² | - |
| 1777991777 | 19.44° C | 61% | 1015 hPa | 0 mm | - | 593 W/m² | - |
| 1777991474 | 18.89° C | 62% | 1015 hPa | 0 mm | - | 303 W/m² | - |
| 1777991171 | 18.89° C | 63% | 1014.8 hPa | 0 mm | - | 206 W/m² | - |
| 1777990869 | 18.89° C | 63% | 1014.9 hPa | 0 mm | - | 201 W/m² | - |
* Rain latest hour (hover to see other rain measurements)
** Current wind speed in m/s (hover to see current wind gust speed)